Luke AFB, AZ

7:20 PM MST on January 18, 2017 (GMT -0700)
Luke Air Force Base

Weather History for KLUF - November, 2013

Change the Weather History Date:

Wednesday, November 20, 2013

  Actual Average Record
Temperature  
Mean Temperature 66 °F -  
Max Temperature 73 °F 74 °F 87 °F (2006)
Min Temperature 55 °F 41 °F 27 °F (1930)
Growing Degree Days 16 (Base 50)    
Moisture  
Dew Point 45 °F    
Average Humidity 52    
Maximum Humidity 67    
Minimum Humidity 37    
Precipitation  
Precipitation 0.00 in - - ()
Sea Level Pressure  
Sea Level Pressure 29.82 in    
Wind  
Wind Speed 3 mph (WSW)    
Max Wind Speed 12 mph    
Max Gust Speed -    
Visibility 10 miles    
Events Rain    
Averages and records for this station are not official NWS values.
T = Trace of Precipitation, MM = Missing Value Source: NWS Daily Summary

Daily Weather History Graph

Daily Weather History Graph

Search for Another Location

Airport or City:

Trip Planner

Search our weather history database for the weather conditions in past years. The results will help you decide how hot, cold, wet, or windy it might be!

Date:

Astronomy

Nov. 20, 2013 Rise Set
Actual Time 7:06 AM MST 5:24 PM MST
Civil Twilight 6:39 AM MST 5:50 PM MST
Nautical Twilight 6:09 AM MST 6:21 PM MST
Astronomical Twilight 5:39 AM MST 6:50 PM MST
Moon 8:10 PM MST (11/20) 9:33 AM MST (11/20)
Length of Visible Light 11h 11m
Length of Day
10h 18m
Waning Gibbous, 91% of the Moon is Illuminated
Nov 20
Waning Gibbous
Nov 25
Last Quarter
Dec 2
New
Dec 9
First Quarter
Dec 17
Full

Hourly Weather History & Observations

Time (MST) Temp. Dew Point Humidity Pressure Visibility Wind Dir Wind Speed Gust Speed Precip Events Conditions
12:58 AM 59.5 °F 46.6 °F 62% 29.84 in 10.0 mi Calm Calm - N/A   Partly Cloudy
1:58 AM 59.7 °F 45.9 °F 60% 29.84 in 10.0 mi NW 1.2 mph - N/A   Scattered Clouds
2:58 AM 59.4 °F 45.9 °F 61% 29.84 in 10.0 mi NNW 2.3 mph - N/A   Clear
3:58 AM 61.0 °F 45.1 °F 56% 29.83 in 10.0 mi Calm Calm - N/A   Clear
4:58 AM 59.9 °F 47.3 °F 63% 29.81 in 10.0 mi Calm Calm - 0.00 in Rain Light Rain
5:58 AM 59.4 °F 46.8 °F 63% 29.81 in 10.0 mi West 4.6 mph - 0.00 in   Overcast
6:58 AM 59.2 °F 46.6 °F 63% 29.83 in 10.0 mi South 3.5 mph - N/A   Mostly Cloudy
7:58 AM 59.0 °F 46.9 °F 64% 29.84 in 10.0 mi Calm Calm - N/A   Scattered Clouds
8:58 AM 61.7 °F 45.5 °F 55% 29.87 in 10.0 mi Calm Calm - N/A   Mostly Cloudy
9:58 AM 64.6 °F 45.9 °F 51% 29.87 in 10.0 mi Calm Calm - N/A   Mostly Cloudy
10:58 AM 67.5 °F 45.9 °F 46% 29.85 in 10.0 mi Calm Calm - N/A   Mostly Cloudy
11:58 AM 70.0 °F 46.2 °F 43% 29.84 in 10.0 mi WSW 3.5 mph - N/A   Mostly Cloudy
12:58 PM 71.4 °F 45.7 °F 40% 29.80 in 10.0 mi Variable 4.6 mph - N/A   Mostly Cloudy
1:58 PM 72.5 °F 45.7 °F 38% 29.78 in 10.0 mi SW 9.2 mph - N/A   Mostly Cloudy
2:58 PM 73.0 °F 46.4 °F 39% 29.77 in 10.0 mi South 11.5 mph - N/A   Mostly Cloudy
3:58 PM 73.0 °F 45.7 °F 38% 29.78 in 10.0 mi SW 6.9 mph - N/A   Mostly Cloudy
4:58 PM 72.1 °F 44.8 °F 37% 29.78 in 10.0 mi SSW 9.2 mph - N/A   Mostly Cloudy
5:58 PM 69.4 °F 43.2 °F 39% 29.79 in 10.0 mi SW 8.1 mph - N/A   Scattered Clouds
6:58 PM 67.6 °F 44.1 °F 43% 29.81 in 10.0 mi South 3.5 mph - N/A   Scattered Clouds
7:58 PM 66.2 °F 42.6 °F 42% 29.82 in 10.0 mi SSW 4.6 mph - N/A   Scattered Clouds
8:58 PM 62.2 °F 43.2 °F 50% 29.84 in 10.0 mi SW 3.5 mph - N/A   Scattered Clouds
9:58 PM 58.8 °F 44.6 °F 59% 29.83 in 10.0 mi WNW 3.5 mph - N/A   Scattered Clouds
10:58 PM 58.1 °F 43.9 °F 59% 29.84 in 10.0 mi NNW 2.3 mph - N/A   Clear
11:58 PM 55.2 °F 44.6 °F 67% 29.84 in 10.0 mi Variable 4.6 mph - N/A   Clear